Vorticity
nan nan nan nan nan nan nan nan nan nan nan nan nan nan nan nan nan nan nan nan nan nan nan nan nan nan nan nan nan nan nan nan nan nan nan nan nan nan nan nan nan nan nan
nan 9 9 7 10 9 9 9 8 9 8 7 8 7 7 10 10 11 7 10 11 8 9 6 5 10 13 7 7 7 7 7 8 10 9 10 10 8 9 7 9 11 nan
nan 8 9 9 8 9 10 9 9 9 8 9 8 9 9 9 8 8 9 6 7 8 9 9 11 8 6 7 11 11 10 12 7 7 8 8 10 11 8 9 7 5 nan
nan 11 11 10 9 9 8 10 9 9 10 9 8 9 9 8 9 11 10 7 7 8 9 8 10 16 17 13 10 10 9 9 9 8 12 11 11 10 8 10 9 10 nan
nan 13 10 11 10 9 9 8 9 9 8 9 10 10 7 7 16 14 11 8 7 9 9 9 10 14 14 18 21 20 16 9 9 8 8 12 13 11 12 11 10 9 nan
nan 11 9 9 10 10 10 10 8 8 9 9 9 8 8 7 13 16 11 10 9 9 12 14 13 7 1 7 12 15 19 17 12 9 9 12 9 11 12 12 10 7 nan
nan 10 12 11 11 10 9 8 11 10 8 10 10 9 8 11 4 7 9 10 12 13 12 14 14 10 9 3 5 4 6 12 12 14 13 11 9 9 14 15 10 10 nan
nan 11 11 9 11 13 12 12 11 11 10 11 14 12 12 10 7 8 13 15 14 13 11 12 12 8 12 11 7 3 5 8 14 19 16 12 13 13 13 10 14 11 nan
nan 12 12 10 8 13 14 12 13 13 14 12 14 20 15 4 8 11 16 17 9 8 6 8 17 11 5 18 18 9 8 6 9 12 10 7 4 11 20 19 14 7 nan
nan 11 11 11 15 13 13 10 9 11 13 12 11 11 14 7 5 11 15 18 12 6 6 3 8 13 11 12 16 13 8 9 8 4 4 7 6 6 11 17 15 14 nan
nan 14 12 11 14 13 11 10 11 9 9 10 9 9 7 8 11 13 18 18 15 10 10 9 3 12 17 15 15 15 12 10 10 10 9 8 9 10 10 11 15 17 nan
nan 13 18 17 13 14 10 10 11 11 9 8 8 8 8 8 9 16 17 17 17 14 11 11 11 16 15 14 15 14 12 9 8 8 9 11 12 7 9 11 11 12 nan
nan 10 13 16 14 13 13 10 9 9 10 10 9 9 9 9 7 9 11 10 14 13 11 11 12 11 9 10 11 7 6 9 10 9 10 9 9 8 9 8 9 7 nan
nan 10 12 10 10 11 11 9 10 9 9 9 9 10 10 10 10 7 5 6 8 11 10 5 7 7 9 9 6 8 10 10 7 8 12 13 12 12 8 8 9 7 nan
nan 8 10 9 9 7 8 13 12 10 14 18 15 13 10 9 9 12 16 14 10 10 6 7 5 7 8 9 11 12 11 11 11 9 8 11 13 13 12 10 11 11 nan
nan 9 9 8 9 9 9 4 7 17 16 15 20 15 13 16 13 9 11 12 11 8 11 14 11 11 11 9 8 9 12 12 12 13 10 10 10 10 8 11 11 11 nan
nan 11 9 11 10 10 10 9 3 4 8 9 10 11 16 12 8 7 5 8 9 8 11 10 13 12 12 12 12 11 9 10 12 11 10 9 9 10 10 9 9 10 nan
nan 9 16 13 11 10 9 9 9 9 6 4 6 9 6 8 8 5 5 12 18 14 12 10 10 10 10 11 11 12 10 9 9 11 11 10 9 9 11 11 11 9 nan
nan 10 10 10 9 11 13 13 12 10 8 8 9 10 9 10 11 9 8 11 12 14 11 10 11 11 11 10 10 11 11 10 11 9 9 10 10 8 8 9 8 8 nan
nan 11 16 13 12 10 10 10 9 11 12 10 11 13 12 8 11 11 11 14 12 11 9 10 11 11 11 11 10 8 10 11 10 9 10 9 10 12 11 11 11 9 nan
nan 7 9 13 11 10 11 12 11 10 10 11 12 12 8 5 13 12 13 10 11 9 11 11 10 10 11 10 9 9 9 9 9 11 11 9 10 10 9 11 11 11 nan
nan 10 10 10 10 12 10 11 11 10 10 9 8 5 8 17 11 8 11 11 10 10 12 10 11 10 10 10 10 10 10 10 10 10 10 11 10 10 12 10 10 10 nan
nan 9 10 10 9 10 10 9 9 9 9 11 8 9 7 10 10 12 8 9 9 10 10 10 10 10 11 10 10 10 11 11 11 11 9 10 10 13 10 10 11 10 nan
nan 10 10 9 11 7 10 9 8 10 11 8 10 11 10 10 10 6 9 13 11 11 9 9 9 11 8 7 9 11 15 15 14 11 10 11 11 11 9 12 11 11 nan
nan 11 10 11 10 10 9 10 10 9 6 11 13 9 8 11 10 11 14 10 10 10 12 12 13 12 7 6 5 13 14 15 10 12 15 11 14 10 11 10 10 12 nan
nan nan nan nan nan nan nan nan nan nan nan nan nan nan nan nan nan nan nan nan nan nan nan nan nan nan nan nan nan nan nan nan nan nan nan nan nan nan nan nan nan nan nan
CAPE
1963 2596 2626 2460 2118 2185 1785 1741 1786 1827 1752 1835 1829 1655 1791 1944 1948 2040 2917 2171 1771 1827 1590 1550 1695 1720 1340 1532 619 723 1089 1666 1280 1544 1768 1977 1903 1875 1287 1898 806 1223 15
2512 2877 2078 2307 2234 1835 1843 1625 1900 2108 1861 1834 1864 1889 2276 1686 1928 2116 2067 1694 1875 1389 2128 2096 2206 1113 1785 2715 932 2112 2094 1773 1478 1550 1929 2319 2225 1688 1740 1551 1473 787 0
2586 1903 1962 2142 2179 2002 1847 1869 1858 2377 1864 1794 2085 2161 2068 1846 1801 1806 1815 1822 2486 1205 1348 1420 1415 1528 1438 2041 2368 2140 1728 1741 1651 857 2080 2120 2351 1596 1627 1735 1215 1207 0
2849 2525 3318 3085 3170 2146 2659 2689 2037 2732 2714 2181 2730 2076 1954 1765 1679 1726 2114 1856 1695 1402 1434 1477 2092 2205 2262 1730 2125 1859 1968 2584 1989 1801 972 877 2532 1937 1397 2039 1710 1906 0
3192 3618 3247 2961 3582 3399 3194 3299 2766 2654 2466 2045 1981 2073 1812 1728 1501 2183 1808 1692 1763 1668 1586 1616 1682 622 0 415 1709 2377 1614 1480 2247 1055 618 725 2024 1268 1204 1318 1545 1554 1158
2585 2379 3475 2763 3446 3626 3590 3197 3094 3173 2804 2853 2086 2149 2048 1239 0 0 431 1486 1619 1698 1822 1926 1878 172 1 0 0 0 0 1459 1295 1524 965 461 499 401 522 641 522 321 99
1514 2028 2398 3235 2722 3053 3213 2958 3147 2646 2513 2500 2597 1978 1887 1607 0 0 0 862 1408 1752 1644 1771 1460 849 591 418 0 0 0 0 0 499 748 102 264 24 576 763 604 984 156
2135 2010 2089 1802 1204 1770 2428 2590 2650 2438 2735 2627 2075 1962 1939 0 0 0 0 1022 1384 1130 893 798 1410 1067 237 613 478 140 4 0 0 11 7 0 0 0 35 523 604 79 26
1385 1464 1391 1762 973 1355 1721 1658 1749 1502 1430 1593 1455 1601 1347 6 0 1 0 1054 1106 456 128 0 19 661 0 0 209 30 0 0 0 0 0 0 0 0 0 110 268 164 19
198 336 364 807 758 1285 1380 1080 517 47 3 3 2 3 0 3 1 1 0 1165 797 156 31 5 0 0 0 0 9 5 0 0 0 0 0 0 0 0 0 0 0 117 3
110 37 42 142 235 609 368 8 2 2 3 2 2 3 2 2 2 1 0 81 96 36 8 2 0 0 0 0 0 0 0 0 0 0 0 0 0 0 0 0 0 20 0
3 4 2 86 52 19 6 3 4 2 2 2 2 2 2 1 1 1 0 0 0 1 3 4 2 1 0 0 0 0 0 1 2 0 0 0 0 0 0 0 0 8 7
5 2 4 2 2 2 4 2 2 2 2 4 4 2 2 3 1 1 0 0 0 1 1 0 0 0 0 0 0 0 0 2 1 1 0 0 0 0 0 0 0 0 9
7 4 5 2 2 3 3 4 2 2 3 5 5 5 4 4 1 2 1 0 0 0 0 0 0 0 0 0 0 0 0 0 0 0 0 0 0 0 1 17 0 0 0
3 9 8 3 2 1 1 1 1 0 0 2 15 18 5 1 0 0 0 0 2 0 0 0 0 0 0 0 0 0 0 0 0 0 0 0 0 0 0 0 8 9 1
16 4 3 2 1 0 3 2 0 0 0 0 0 0 0 0 0 0 0 0 0 0 0 0 0 0 0 1 2 0 0 0 0 0 0 0 0 0 0 0 0 0 0
108 10 3 15 31 62 12 1 0 0 0 0 0 0 0 0 0 0 0 0 0 0 0 0 0 0 0 0 0 0 0 0 0 0 0 0 0 0 0 0 0 0 0
56 0 145 79 36 8 1 1 0 0 0 0 0 0 1 1 0 0 0 0 0 0 0 0 0 0 0 0 0 0 0 0 0 0 0 0 0 0 0 0 0 0 0
1 0 13 1 3 3 9 28 31 8 4 0 0 0 0 0 0 0 0 1 3 2 2 0 0 0 0 0 0 0 0 0 0 0 0 0 0 0 0 0 0 0 0
14 2 8 0 0 0 0 0 0 0 0 0 0 0 0 0 0 0 2 3 11 12 7 3 0 0 0 0 0 0 0 0 0 0 0 0 0 0 0 0 0 0 0
10 0 0 0 0 0 0 0 0 0 0 0 0 0 0 4 7 2 1 0 0 0 0 6 0 0 0 0 0 0 0 0 0 0 0 0 0 0 0 0 0 0 0
0 0 0 0 0 0 0 0 0 0 0 0 0 0 0 0 8 2 6 1 1 0 0 0 0 0 0 0 0 0 0 0 0 0 0 0 0 0 0 0 0 2 0
0 0 0 0 0 0 0 0 0 0 0 0 0 0 0 0 9 18 18 11 16 19 9 0 0 0 0 0 0 0 0 0 0 0 0 0 0 0 0 2 9 23 28
0 0 0 0 0 0 0 2 3 0 4 8 8 7 1 4 14 25 22 38 44 57 56 42 34 31 17 1 0 0 0 1 2 4 0 0 0 0 0 8 19 23 29
0 0 0 0 0 0 0 0 7 5 3 15 18 24 21 27 27 34 41 51 57 50 57 66 87 57 34 41 25 47 0 0 15 0 13 2 2 4 0 11 34 59 37
0 0 4 3 0 0 4 7 16 21 24 24 28 25 34 36 43 84 32 38 47 69 63 84 84 71 59 76 88 2 0 0 0 0 0 10 41 18 23 25 41 32 24